Buena Park, CA

10:24 AM PDT on July 25, 2016 (GMT -0700)
Fullerton Municipal

Weather History for KFUL - November, 2012

Change the Weather History Date:

Thursday, November 15, 2012

  Actual Average Record
Temperature  
Mean Temperature 63 °F 61 °F  
Max Temperature 71 °F 73 °F 91 °F (2007)
Min Temperature 54 °F 50 °F 41 °F (2000)
Degree Days  
Heating Degree Days 2 5  
Month to date heating degree days 26 47  
Since 1 July heating degree days 42 71  
Cooling Degree Days 0 1  
Month to date cooling degree days 37 17  
Year to date cooling degree days 2026 1248  
Growing Degree Days 12 (Base 50)    
Moisture  
Dew Point 47 °F    
Average Humidity 54    
Maximum Humidity 77    
Minimum Humidity 31    
Precipitation  
Precipitation 0.00 in 0.04 in 0.01 in (2006)
Month to date precipitation 0.14 0.60  
Year to date precipitation 3.83 11.33  
Since 1 July precipitation 0.30  
Snow  
Snow 0.00 in - - ()
Month to date snowfall 0.0  
Year to date snowfall 0.0  
Snow Depth 0.00 in    
Sea Level Pressure  
Sea Level Pressure 30.06 in    
Wind  
Wind Speed 2 mph (South)    
Max Wind Speed 8 mph    
Max Gust Speed 39 mph    
Visibility 9 miles    
Events Rain    
T = Trace of Precipitation, MM = Missing Value Source: NWS Daily Summary

Daily Weather History Graph

Daily Weather History Graph

Search for Another Location

Airport or City:

Trip Planner

Search our weather history database for the weather conditions in past years. The results will help you decide how hot, cold, wet, or windy it might be!

Date:

Astronomy

Nov. 15, 2012 Rise Set
Actual Time 6:24 AM PST 4:48 PM PST
Civil Twilight 5:58 AM PST 5:14 PM PST
Nautical Twilight 5:27 AM PST 5:44 PM PST
Astronomical Twilight 4:58 AM PST 6:14 PM PST
Moon 8:22 AM PST (11/15) 6:47 PM PST (11/15)
Length of Visible Light 11h 16m
Length of Day
10h 23m
Waxing Crescent, 5% of the Moon is Illuminated
Nov 15
Waxing Crescent
Nov 20
First Quarter
Nov 28
Full
Dec 6
Last Quarter
Dec 13
New

Hourly Weather History & Observations

Time (PST) Temp. Dew Point Humidity Pressure Visibility Wind Dir Wind Speed Gust Speed Precip Events Conditions
12:53 AM 57.0 °F 43.0 °F 59% 30.02 in 10.0 mi Calm Calm - N/A   Clear
1:53 AM 55.9 °F 44.1 °F 64% 30.04 in 10.0 mi Calm Calm - N/A   Clear
2:53 AM 55.9 °F 45.0 °F 67% 30.04 in 10.0 mi Calm Calm - N/A   Clear
3:53 AM 54.0 °F 46.0 °F 75% 30.05 in 10.0 mi Calm Calm - N/A   Clear
4:53 AM 54.0 °F 45.0 °F 72% 30.05 in 10.0 mi Calm Calm - N/A   Clear
5:53 AM 54.0 °F 44.1 °F 69% 30.03 in 10.0 mi East 3.5 mph - N/A   Clear
6:53 AM 54.0 °F 43.0 °F 66% 30.04 in 10.0 mi Calm Calm - N/A   Clear
7:53 AM 57.0 °F 44.1 °F 62% 30.08 in 10.0 mi Calm Calm - N/A   Clear
8:53 AM 60.1 °F 46.9 °F 62% 30.09 in 8.0 mi NNW 3.5 mph - N/A   Clear
9:53 AM 63.0 °F 45.0 °F 52% 30.10 in 9.0 mi Calm Calm - N/A   Clear
10:53 AM 68.0 °F 43.0 °F 40% 30.09 in 8.0 mi ESE 5.8 mph - N/A   Clear
11:53 AM 70.0 °F 42.1 °F 36% 30.09 in 10.0 mi Calm Calm - N/A   Clear
12:53 PM 70.0 °F 44.1 °F 39% 30.08 in 9.0 mi SW 3.5 mph - N/A   Clear
1:53 PM 70.0 °F 46.9 °F 44% 30.07 in 8.0 mi SW 3.5 mph - N/A   Clear
2:53 PM 70.0 °F 37.0 °F 30% 30.04 in 10.0 mi South 4.6 mph - N/A   Clear
3:53 PM 69.1 °F 43.0 °F 39% 30.05 in 10.0 mi South 5.8 mph - N/A   Clear
4:53 PM 68.0 °F 45.0 °F 43% 30.05 in 10.0 mi Calm Calm - N/A   Scattered Clouds
5:53 PM 66.0 °F 46.0 °F 48% 30.05 in 10.0 mi Calm Calm - N/A   Clear
6:53 PM 64.9 °F 51.1 °F 61% 30.07 in 9.0 mi Calm Calm - N/A   Scattered Clouds
7:53 PM 64.9 °F 55.0 °F 70% 30.08 in 8.0 mi Calm Calm - N/A   Mostly Cloudy
8:53 PM 64.0 °F 55.9 °F 75% 30.08 in 7.0 mi Calm Calm - 0.00 in Rain Light Rain
9:53 PM 63.0 °F 55.0 °F 75% 30.08 in 6.0 mi Calm Calm - 0.00 in   Haze
10:53 PM 63.0 °F 54.0 °F 72% 30.09 in 7.0 mi Calm Calm - N/A   Overcast
11:53 PM 63.0 °F 55.0 °F 75% 30.08 in 7.0 mi Calm Calm - 0.00 in   Overcast